User: anonymous   Login
Location: Unspecified
(0.0000°N, 0.0000°E)
Time: 16:37:19
(UTC+00:00)
Language:

COSMOS 2416 - Orbit

View from above orbital plane
View from above orbital plane
View from above satellite
View from above satellite

Ground track
Ground track

The orbit data is extracted from the following two-line orbital elements,

1 28909U 05048B   17204.92831947 +.00000060 +00000-0 +30681-3 0  9999
2 28909 082.4663 227.3094 0006329 200.1839 159.8999 12.55165168530906
Epoch (UTC): 23 July 2017 22:16:46
Eccentricity: 0.0006329
inclination: 82.4663°
perigee height: 1438 km
apogee height: 1448 km
right ascension of ascending node: 227.3094°
argument of perigee: 200.1839°
revolutions per day: 12.55165168
mean anomaly at epoch: 159.8999°
orbit number at epoch: 53090

The dashed part of the orbit path shows where the satellite is in the earth's shadow,  

DLR